Tracking 30703 objects as of 13-Jun-2025
HD Live streaming from Space Station
objects crossing your sky now

SATCOM 3 DEB

Track SATCOM 3 DEB now!


NORAD ID: 29002
Int'l Code: 1979-101E
Perigee: 8,313.6 km
Apogee: 35,646.9 km
Inclination: 8.1 °
Period: 791.8 minutes
Semi major axis: 28351 km
RCS: 0.0631 m2 (small)
Launch date: December 7, 1979
Source: United States (US)
Launch site: AIR FORCE EASTERN TEST RANGE (AFETR)

Note: This is SATELLITE DEBRIS
Your satellite tracking list
Your tracking list is empty




NASA's NSSDC Master Catalog

Two Line Element Set (TLE):
1 29002U 79101E   25163.28739786 -.00000086  00000-0  00000-0 0  9993
2 29002   8.1352 130.3727 4820464  12.8543  13.6801  1.81863130128751
Source of the keplerian elements: AFSPC